[[{"header":{"parameterUnit":"m.s-1","parameterCategory":1,"la1":30.2992,"la2":30.254,"lo1":-89.0895,"lo2":-89.0443,"dy":0.0025,"dx":0.0025,"nx":19,"ny":19,"refTime":"2026-05-22T21:00:00:Z","depth":0,"parameterNumber":2,"parameterNumberName":"U-component_of_WINDS"},"data":[0,0,0,-2.7516,-2.752,-2.773,-2.7731,-2.7987,-2.7989,0,0,0,0,0,0,0,0,0,0,0,-2.7442,-2.7443,-2.7515,-2.752,-2.773,-2.7731,-2.7986,-2.7989,0,0,0,0,0,0,0,0,0,0,0,-2.7441,-2.7443,-2.7445,-2.7521,-2.773,-2.7731,-2.7986,-2.7833,0,0,0,0,0,0,0,0,0,0,-2.7631,-2.7551,-2.7443,-2.7445,-2.7522,-2.773,-2.7731,-2.7826,-2.7842,-2.7885,0,-2.7916,0,-2.7956,-2.8005,-2.8005,0,0,0,-2.753,-2.7537,-2.7604,-2.7445,-2.7524,-2.7729,-2.7638,-2.7835,-2.7854,-2.7906,-2.792,-2.793,-2.796,-2.8006,-2.8007,-2.8213,-2.8213,0,0,-2.7518,-2.7474,-2.7591,-2.7615,-2.7578,-2.7631,-2.7644,-2.7847,-2.786,-2.7921,-2.7936,-2.7965,-2.8008,-2.8009,-2.8212,-2.8213,0,0,0,-2.7478,-2.7466,-2.7528,-2.7604,-2.7643,-2.7637,-2.7652,-2.7851,-2.7875,-2.7939,-2.7968,-2.8009,-2.8012,-2.8212,-2.8213,-2.8193,0,0,0,-2.7472,-2.7443,-2.7522,-2.7498,-2.7639,-2.7749,-2.7651,-2.786,-2.7885,-2.7966,-2.8009,-2.8014,-2.8211,-2.8212,-2.8192,-2.8191,0,0,0,-2.7432,-2.7438,-2.7464,-2.7495,-2.7583,-2.7747,-2.7782,-2.7867,-2.7902,-2.8006,-2.8015,-2.8211,-2.8212,-2.8192,-2.819,-2.8231,0,0,0,-2.7378,-2.7446,-2.7463,-2.7551,-2.7581,-2.7732,-2.7781,-2.7897,-2.7984,-2.801,-2.8211,-2.8213,-2.8192,-2.819,-2.823,-2.8255,-2.8262,0,0,-2.7439,-2.7451,-2.7507,-2.7528,-2.7664,-2.7704,-2.7839,-2.7962,-2.8014,-2.8145,-2.815,-2.8193,-2.819,-2.823,-2.8319,-2.8324,0,0,0,-2.7511,-2.7549,-2.7595,-2.7674,-2.7768,-2.7849,-2.7956,-2.8002,-2.8114,-2.8071,-2.8221,-2.8221,-2.8247,-2.8261,-2.8265,-2.8289,-2.8218,-2.8218,-2.8218,-2.7533,-2.7594,-2.7689,-2.7775,-2.7852,-2.7962,-2.803,-2.8112,-2.8153,-2.8187,-2.8225,-2.8271,-2.8286,-2.829,-2.8314,-2.8246,-2.8246,-2.8246,-2.8246,-2.7626,-2.769,-2.7742,-2.7852,-2.7918,-2.8013,-2.8123,-2.8149,-2.8249,-2.8248,-2.8273,-2.8264,-2.8293,-2.8318,-2.8245,-2.8245,-2.8245,-2.8245,-2.8245,-2.7645,-2.7686,-2.774,-2.7861,-2.7949,-2.8037,-2.8129,-2.8187,-2.8243,-2.8269,-2.8315,-2.8315,-2.8322,-2.8287,-2.8287,-2.8287,-2.8288,-2.8288,-2.8288,-2.7642,-2.7703,-2.7772,-2.7878,-2.7937,-2.8022,-2.8135,-2.8196,-2.8279,-2.8314,-2.8315,-2.8352,-2.8285,-2.8265,-2.829,-2.829,-2.829,-2.8289,-2.8289,-2.7709,-2.7703,-2.7809,-2.7868,-2.7998,-2.8082,-2.8156,-2.8275,-2.8335,-2.8379,-2.8412,-2.8353,-2.8371,-2.8368,-2.8352,-2.8399,-2.8399,-2.8399,-2.8399,-2.7723,-2.7738,-2.7859,-2.7949,-2.8045,-2.8123,-2.8244,-2.8334,-2.8426,-2.8468,-2.847,-2.8455,-2.845,-2.8471,-2.8466,-2.8452,-2.8523,-2.8523,-2.8523,-2.7767,-2.7794,-2.7883,-2.797,-2.8077,-2.8169,-2.8285,-2.8389,-2.8494,-2.8529,-2.8501,-2.8496,-2.8472,-2.8462,-2.8492,-2.8483,-2.8458,0,0]},{"header":{"parameterUnit":"m.s-1","parameterCategory":1,"la1":30.2992,"la2":30.254,"lo1":-89.0895,"lo2":-89.0443,"dy":0.0025,"dx":0.0025,"nx":19,"ny":19,"refTime":"2026-05-22T21:00:00:Z","depth":0,"parameterNumber":3,"parameterNumberName":"V-component_of_WINDS"},"data":[0,0,0,4.2894,4.2896,4.3015,4.3015,4.3172,4.3173,0,0,0,0,0,0,0,0,0,0,0,4.2863,4.2864,4.2893,4.2896,4.3015,4.3015,4.3171,4.3173,0,0,0,0,0,0,0,0,0,0,0,4.2862,4.2864,4.2865,4.2897,4.3015,4.3015,4.3171,4.3079,0,0,0,0,0,0,0,0,0,0,4.2963,4.294,4.2863,4.2865,4.2898,4.3015,4.3015,4.3075,4.3085,4.312,0,4.3154,0,4.3166,4.3184,4.3184,0,0,0,4.2893,4.2931,4.2959,4.2866,4.2899,4.3014,4.296,4.3081,4.3092,4.3134,4.3156,4.3162,4.3169,4.3185,4.3186,4.3405,4.3406,0,0,4.2886,4.2886,4.2951,4.2967,4.2951,4.2957,4.2964,4.3087,4.3111,4.3157,4.3166,4.3171,4.3186,4.3187,4.3404,4.3405,0,0,0,4.287,4.2882,4.2907,4.2961,4.2982,4.296,4.2969,4.3106,4.3114,4.3167,4.3173,4.3187,4.3189,4.3403,4.3405,4.3465,0,0,0,4.2866,4.2872,4.2904,4.2905,4.298,4.3046,4.2984,4.3105,4.3119,4.3172,4.3187,4.3191,4.3401,4.3404,4.346,4.3493,0,0,0,4.2854,4.2871,4.289,4.2905,4.2956,4.3044,4.3059,4.3108,4.3123,4.3185,4.3191,4.3401,4.3403,4.3456,4.3487,4.3552,0,0,0,4.284,4.294,4.289,4.3005,4.2955,4.308,4.3058,4.3151,4.3211,4.3188,4.3402,4.3404,4.3455,4.3483,4.3548,4.3607,4.3632,0,0,4.2966,4.2955,4.3023,4.2982,4.3116,4.3062,4.3205,4.3259,4.3264,4.3357,4.3363,4.3462,4.3486,4.3551,4.3769,4.3789,0,0,0,4.3063,4.3111,4.3147,4.3204,4.3249,4.329,4.3322,4.3342,4.3421,4.3312,4.3503,4.3517,4.3555,4.3583,4.36,4.3633,4.3417,4.3417,4.3417,4.3241,4.3244,4.3355,4.3372,4.3428,4.3461,4.3506,4.3538,4.3523,4.3568,4.3596,4.3728,4.3761,4.3774,4.3808,4.3627,4.3627,4.3627,4.3627,4.3427,4.3496,4.3475,4.3575,4.3577,4.366,4.3696,4.3682,4.376,4.3707,4.374,4.3683,4.3796,4.3825,4.3632,4.3631,4.363,4.363,4.363,4.3545,4.3579,4.3602,4.3686,4.375,4.3763,4.3839,4.3837,4.3835,4.3869,4.3898,4.3897,4.3896,4.3883,4.3883,4.3884,4.3884,4.3884,4.3885,4.3658,4.3683,4.3748,4.3805,4.3842,4.389,4.3924,4.396,4.3999,4.3991,4.3991,4.3972,4.3806,4.3765,4.3892,4.3891,4.389,4.3889,4.3889,4.3847,4.3804,4.3905,4.3943,4.4008,4.4073,4.4069,4.4143,4.4172,4.4209,4.4183,4.4061,4.4049,4.4035,4.4001,4.4182,4.4182,4.4182,4.4182,4.3947,4.3941,4.4044,4.4104,4.4162,4.417,4.4283,4.431,4.4331,4.4349,4.4323,4.4277,4.4263,4.426,4.4241,4.421,4.4439,4.4439,4.444,4.4064,4.4063,4.4161,4.4182,4.4234,4.4278,4.4384,4.4453,4.4467,4.445,4.4363,4.4353,4.4279,4.4255,4.4236,4.4207,4.4149,0,0]}]]